When you browse on this site, cookies collect data to enhance your experience and personalize the content and advertising you see.
Visit our Privacy Policy to learn more. By continuing to use the site, you agree to this use of cookies and data.
  • Em Portugal
  • Lista de países
  • Para 7 dias
  • Temperatura da água
  • Mapas de satélite
  • Mapa do tempo
  • Widgets de tempo
  • user-avatar
    Iniciar Sessão

    Previsão horária em Lisboa

    Hoje, 21 Julho, Domingo

    Tempo Temperatura Precipitação Vento Pressão Humidade
    00:00 +17°C° 0 mm 5 m/s 760 mmHg 79%
    01:00 +17°C° 0 mm 5 m/s 760 mmHg 81%
    02:00 +17°C° 0 mm 5 m/s 760 mmHg 84%
    03:00 +17°C° 0 mm 5 m/s 759 mmHg 84%
    04:00 +17°C° 0 mm 5 m/s 759 mmHg 84%
    05:00 +17°C° 0 mm 5 m/s 759 mmHg 84%
    06:00 +20°C° 0 mm 5 m/s 760 mmHg 75%
    07:00 +22°C° 0 mm 5 m/s 760 mmHg 66%
    08:00 +25°C° 0 mm 5 m/s 760 mmHg 57%
    09:00 +27°C° 0 mm 5 m/s 760 mmHg 51%
    10:00 +28°C° 0 mm 5 m/s 760 mmHg 45%
    11:00 +30°C° 0 mm 5 m/s 759 mmHg 38%
    12:00 +30°C° 0 mm 6 m/s 759 mmHg 39%
    13:00 +30°C° 0 mm 7 m/s 759 mmHg 39%
    14:00 +32°C° 0 mm 7 m/s 759 mmHg 40%
    15:00 +29°C° 0 mm 7 m/s 759 mmHg 43%
    16:00 +28°C° 0 mm 7 m/s 759 mmHg 45%
    17:00 +27°C° 0 mm 7 m/s 759 mmHg 48%
    18:00 +24°C° 0 mm 7 m/s 759 mmHg 56%
    19:00 +22°C° 0 mm 6 m/s 759 mmHg 64%
    20:00 +19°C° 0 mm 5 m/s 760 mmHg 72%
    21:00 +19°C° 0 mm 5 m/s 760 mmHg 75%
    22:00 +18°C° 0 mm 4 m/s 760 mmHg 79%
    23:00 +18°C° 0 mm 4 m/s 760 mmHg 82%

    Amanhã, 22 Julho, Segunda-feira

    Tempo Temperatura Precipitação Vento Pressão Humidade
    00:00 +18°C° 0 mm 3 m/s 759 mmHg 84%
    01:00 +17°C° 0 mm 2 m/s 759 mmHg 86%
    02:00 +18°C° 0 mm 1 m/s 759 mmHg 88%
    03:00 +18°C° 0 mm 1 m/s 759 mmHg 88%
    04:00 +18°C° 0 mm 1 m/s 759 mmHg 89%
    05:00 +18°C° 0 mm 1 m/s 759 mmHg 90%
    06:00 +20°C° 0 mm 2 m/s 759 mmHg 80%
    07:00 +23°C° 0 mm 2 m/s 759 mmHg 70%
    08:00 +26°C° 0 mm 2 m/s 759 mmHg 59%
    09:00 +28°C° 0 mm 2 m/s 759 mmHg 52%
    10:00 +30°C° 0 mm 2 m/s 759 mmHg 44%
    11:00 +33°C° 0 mm 3 m/s 759 mmHg 37%
    12:00 +33°C° 0 mm 3 m/s 759 mmHg 37%
    13:00 +33°C° 0 mm 4 m/s 758 mmHg 37%
    14:00 +33°C° 0 mm 5 m/s 758 mmHg 37%
    15:00 +32°C° 0 mm 5 m/s 758 mmHg 40%
    16:00 +30°C° 0 mm 5 m/s 757 mmHg 44%
    17:00 +28°C° 0 mm 5 m/s 757 mmHg 48%
    18:00 +26°C° 0 mm 5 m/s 758 mmHg 59%
    19:00 +23°C° 0 mm 5 m/s 758 mmHg 69%
    20:00 +20°C° 0 mm 5 m/s 758 mmHg 80%
    21:00 +20°C° 0 mm 4 m/s 758 mmHg 82%
    22:00 +19°C° 0 mm 3 m/s 758 mmHg 85%
    23:00 +19°C° 0 mm 2 m/s 758 mmHg 87%

    Depois de amanhã, 23 Julho, Terça-feira

    Tempo Temperatura Precipitação Vento Pressão Humidade
    00:00 +19°C° 0 mm 2 m/s 758 mmHg 88%
    01:00 +19°C° 0 mm 2 m/s 758 mmHg 88%
    02:00 +19°C° 0 mm 2 m/s 757 mmHg 89%
    03:00 +19°C° 0 mm 2 m/s 757 mmHg 89%
    04:00 +19°C° 0 mm 2 m/s 757 mmHg 89%
    05:00 +19°C° 0 mm 3 m/s 757 mmHg 90%
    06:00 +20°C° 0 mm 3 m/s 757 mmHg 80%
    07:00 +22°C° 0 mm 3 m/s 757 mmHg 71%
    08:00 +25°C° 0 mm 3 m/s 758 mmHg 62%
    09:00 +27°C° 0 mm 4 m/s 758 mmHg 55%
    10:00 +29°C° 0 mm 4 m/s 758 mmHg 48%
    11:00 +32°C° 0 mm 5 m/s 758 mmHg 41%
    12:00 +32°C° 0 mm 5 m/s 758 mmHg 39%
    13:00 +32°C° 0 mm 6 m/s 757 mmHg 37%
    14:00 +33°C° 0 mm 7 m/s 757 mmHg 35%
    15:00 +30°C° 0 mm 7 m/s 757 mmHg 39%
    16:00 +29°C° 0 mm 6 m/s 757 mmHg 42%
    17:00 +28°C° 0 mm 6 m/s 757 mmHg 45%
    18:00 +26°C° 0 mm 6 m/s 757 mmHg 53%
    19:00 +23°C° 0 mm 6 m/s 757 mmHg 61%
    20:00 +21°C° 0 mm 5 m/s 757 mmHg 69%
    21:00 +21°C° 0 mm 5 m/s 757 mmHg 72%
    22:00 +20°C° 0 mm 4 m/s 757 mmHg 75%
    23:00 +19°C° 0 mm 3 m/s 757 mmHg 79%

    24 Julho, Quarta-feira

    Tempo Temperatura Precipitação Vento Pressão Humidade
    00:00 +19°C° 0 mm 3 m/s 757 mmHg 81%
    01:00 +19°C° 0 mm 2 m/s 756 mmHg 83%
    02:00 +18°C° 0 mm 2 m/s 756 mmHg 86%
    03:00 +18°C° 0 mm 2 m/s 756 mmHg 85%
    04:00 +19°C° 0 mm 1 m/s 756 mmHg 85%
    05:00 +19°C° 0 mm 1 m/s 756 mmHg 84%
    06:00 +22°C° 0 mm 1 m/s 756 mmHg 71%
    07:00 +24°C° 0 mm 2 m/s 756 mmHg 59%
    08:00 +27°C° 0 mm 2 m/s 757 mmHg 46%
    09:00 +29°C° 0 mm 2 m/s 756 mmHg 41%
    10:00 +31°C° 0 mm 3 m/s 756 mmHg 36%
    11:00 +33°C° 0 mm 4 m/s 756 mmHg 31%
    12:00 +33°C° 0 mm 5 m/s 756 mmHg 34%
    13:00 +33°C° 0 mm 5 m/s 756 mmHg 36%
    14:00 +32°C° 0 mm 6 m/s 755 mmHg 39%
    15:00 +30°C° 0 mm 6 m/s 755 mmHg 46%
    16:00 +29°C° 0 mm 6 m/s 755 mmHg 53%
    17:00 +28°C° 0 mm 6 m/s 755 mmHg 60%
    18:00 +26°C° 0 mm 5 m/s 756 mmHg 69%
    19:00 +23°C° 0 mm 5 m/s 756 mmHg 78%
    20:00 +22°C° 0 mm 4 m/s 756 mmHg 87%
    21:00 +21°C° 0 mm 4 m/s 756 mmHg 89%
    22:00 +21°C° 0 mm 3 m/s 756 mmHg 91%
    23:00 +21°C° 0 mm 2 m/s 757 mmHg 93%

    25 Julho, Quinta-feira

    Tempo Temperatura Precipitação Vento Pressão Humidade
    00:00 +21°C° 0 mm 2 m/s 756 mmHg 92%
    01:00 +21°C° 0 mm 2 m/s 756 mmHg 92%
    02:00 +21°C° 0 mm 2 m/s 756 mmHg 92%
    03:00 +21°C° 0 mm 2 m/s 756 mmHg 91%
    04:00 +21°C° 0 mm 2 m/s 756 mmHg 89%
    05:00 +21°C° 0 mm 2 m/s 757 mmHg 88%
    06:00 +23°C° 0 mm 2 m/s 757 mmHg 78%
    07:00 +25°C° 0 mm 2 m/s 757 mmHg 68%
    08:00 +26°C° 0 mm 2 m/s 757 mmHg 59%
    09:00 +27°C° 0 mm 3 m/s 757 mmHg 53%
    10:00 +29°C° 0 mm 3 m/s 757 mmHg 47%
    11:00 +30°C° 0 mm 4 m/s 757 mmHg 42%
    12:00 +30°C° 0 mm 5 m/s 757 mmHg 45%
    13:00 +30°C° 0 mm 6 m/s 757 mmHg 47%
    14:00 +30°C° 0 mm 7 m/s 757 mmHg 50%
    15:00 +29°C° 0 mm 7 m/s 757 mmHg 55%
    16:00 +27°C° 0 mm 7 m/s 757 mmHg 60%
    17:00 +26°C° 0 mm 7 m/s 757 mmHg 65%
    18:00 +24°C° 0 mm 7 m/s 758 mmHg 67%
    19:00 +22°C° 0 mm 6 m/s 758 mmHg 69%
    20:00 +21°C° 0 mm 5 m/s 759 mmHg 72%
    21:00 +20°C° 0 mm 5 m/s 759 mmHg 73%
    22:00 +19°C° 0 mm 6 m/s 759 mmHg 73%
    23:00 +19°C° 0 mm 6 m/s 760 mmHg 74%

    26 Julho, Sexta-feira

    Tempo Temperatura Precipitação Vento Pressão Humidade
    00:00 +17°C° 0 mm 6 m/s 759 mmHg 77%
    01:00 +17°C° 0 mm 6 m/s 759 mmHg 79%
    02:00 +16°C° 0 mm 5 m/s 759 mmHg 81%
    03:00 +16°C° 0 mm 5 m/s 759 mmHg 81%
    04:00 +16°C° 0 mm 5 m/s 759 mmHg 81%
    05:00 +16°C° 0 mm 5 m/s 759 mmHg 81%
    06:00 +19°C° 0 mm 6 m/s 760 mmHg 71%
    07:00 +21°C° 0 mm 6 m/s 760 mmHg 60%
    08:00 +23°C° 0 mm 7 m/s 760 mmHg 50%
    09:00 +24°C° 0 mm 7 m/s 760 mmHg 46%
    10:00 +26°C° 0 mm 8 m/s 760 mmHg 41%
    11:00 +28°C° 0 mm 8 m/s 760 mmHg 36%
    12:00 +28°C° 0 mm 9 m/s 759 mmHg 37%
    13:00 +28°C° 0 mm 9 m/s 759 mmHg 37%
    14:00 +28°C° 0 mm 9 m/s 758 mmHg 37%
    15:00 +27°C° 0 mm 10 m/s 759 mmHg 40%
    16:00 +24°C° 0 mm 10 m/s 759 mmHg 44%
    17:00 +23°C° 0 mm 10 m/s 759 mmHg 47%
    18:00 +22°C° 0 mm 9 m/s 759 mmHg 53%
    19:00 +19°C° 0 mm 9 m/s 759 mmHg 59%
    20:00 +18°C° 0 mm 8 m/s 760 mmHg 66%
    21:00 +17°C° 0 mm 8 m/s 760 mmHg 67%
    22:00 +17°C° 0 mm 7 m/s 759 mmHg 68%
    23:00 +17°C° 0 mm 7 m/s 759 mmHg 69%
    Mostrar mais